When you browse on this site, cookies collect data to enhance your experience and personalize the content and advertising you see.
Visit our Privacy Policy to learn more. By continuing to use the site, you agree to this use of cookies and data.
  • In United Kingdom
  • List of Countries
  • For 7 days
  • Water Temperature
  • Satellite Maps
  • Weather Map
  • Weather Widgets
  • user-avatar
    Login

    Hourly Weather Monsummano

    Today, 26 May, Sunday

    Time Temperature Precipitation Wind Pressure Humidity
    00:00 +15°C° 0 mm 0 mps 758 mmHg 85%
    01:00 +16°C° 0 mm 1 mps 758 mmHg 83%
    02:00 +16°C° 0.1 mm 1 mps 757 mmHg 84%
    03:00 +16°C° 0.1 mm 1 mps 757 mmHg 85%
    04:00 +16°C° 0.1 mm 1 mps 757 mmHg 85%
    05:00 +18°C° 0.4 mm 1 mps 757 mmHg 85%
    06:00 +18°C° 0.4 mm 1 mps 757 mmHg 86%
    07:00 +19°C° 0 mm 1 mps 757 mmHg 84%
    08:00 +19°C° 0.3 mm 2 mps 757 mmHg 81%
    09:00 +20°C° 0.3 mm 3 mps 757 mmHg 77%
    10:00 +21°C° 0.3 mm 4 mps 757 mmHg 74%
    11:00 +20°C° 0.6 mm 3 mps 757 mmHg 77%
    12:00 +19°C° 0.6 mm 3 mps 757 mmHg 81%
    13:00 +18°C° 0.6 mm 3 mps 757 mmHg 84%
    14:00 +19°C° 0.4 mm 3 mps 757 mmHg 83%
    15:00 +19°C° 0.4 mm 3 mps 756 mmHg 82%
    16:00 +20°C° 0.4 mm 4 mps 756 mmHg 81%
    17:00 +19°C° 0.2 mm 3 mps 756 mmHg 82%
    18:00 +19°C° 0.2 mm 3 mps 756 mmHg 83%
    19:00 +19°C° 0.2 mm 3 mps 756 mmHg 84%
    20:00 +18°C° 0.1 mm 3 mps 756 mmHg 85%
    21:00 +18°C° 0.1 mm 3 mps 756 mmHg 86%
    22:00 +18°C° 0.1 mm 2 mps 756 mmHg 87%
    23:00 +18°C° 0.1 mm 3 mps 756 mmHg 88%

    Tomorrow, 27 May, Monday

    Time Temperature Precipitation Wind Pressure Humidity
    00:00 +17°C° 0.1 mm 3 mps 755 mmHg 88%
    01:00 +17°C° 0.1 mm 3 mps 755 mmHg 88%
    02:00 +17°C° 0.6 mm 3 mps 755 mmHg 88%
    03:00 +17°C° 0.6 mm 3 mps 754 mmHg 89%
    04:00 +18°C° 0.6 mm 3 mps 754 mmHg 89%
    05:00 +18°C° 0.1 mm 3 mps 754 mmHg 89%
    06:00 +18°C° 0.1 mm 3 mps 754 mmHg 89%
    07:00 +18°C° 0.1 mm 3 mps 754 mmHg 88%
    08:00 +18°C° 0.2 mm 3 mps 754 mmHg 88%
    09:00 +18°C° 0.2 mm 3 mps 754 mmHg 87%
    10:00 +18°C° 0.2 mm 3 mps 754 mmHg 86%
    11:00 +19°C° 0.2 mm 4 mps 753 mmHg 81%
    12:00 +20°C° 0.2 mm 4 mps 753 mmHg 77%
    13:00 +21°C° 0.2 mm 5 mps 753 mmHg 72%
    14:00 +21°C° 0.3 mm 4 mps 753 mmHg 75%
    15:00 +20°C° 0.3 mm 3 mps 752 mmHg 77%
    16:00 +19°C° 0.3 mm 3 mps 752 mmHg 80%
    17:00 +19°C° 0.8 mm 2 mps 752 mmHg 82%
    18:00 +18°C° 0.8 mm 2 mps 752 mmHg 85%
    19:00 +18°C° 0.8 mm 2 mps 752 mmHg 87%
    20:00 +18°C° 0.9 mm 2 mps 752 mmHg 88%
    21:00 +17°C° 0.9 mm 2 mps 752 mmHg 90%
    22:00 +17°C° 0.9 mm 2 mps 752 mmHg 91%
    23:00 +17°C° 0.9 mm 2 mps 751 mmHg 91%

    Day after tomorrow, 28 May, Tuesday

    Time Temperature Precipitation Wind Pressure Humidity
    00:00 +18°C° 0.9 mm 1 mps 751 mmHg 92%
    01:00 +18°C° 0.9 mm 1 mps 751 mmHg 92%
    02:00 +16°C° 1.3 mm 1 mps 751 mmHg 92%
    03:00 +16°C° 1.3 mm 1 mps 750 mmHg 92%
    04:00 +16°C° 1.3 mm 1 mps 750 mmHg 93%
    05:00 +16°C° 0.6 mm 1 mps 750 mmHg 92%
    06:00 +18°C° 0.6 mm 1 mps 750 mmHg 91%
    07:00 +18°C° 0.6 mm 1 mps 750 mmHg 90%
    08:00 +19°C° 0.4 mm 1 mps 750 mmHg 86%
    09:00 +18°C° 0.4 mm 0 mps 751 mmHg 83%
    10:00 +19°C° 0.4 mm 0 mps 751 mmHg 79%
    11:00 +21°C° 0.3 mm 1 mps 751 mmHg 76%
    12:00 +22°C° 0.3 mm 1 mps 751 mmHg 73%
    13:00 +23°C° 0.3 mm 2 mps 750 mmHg 69%
    14:00 +23°C° 0.2 mm 2 mps 750 mmHg 71%
    15:00 +22°C° 0.2 mm 3 mps 750 mmHg 73%
    16:00 +21°C° 0.2 mm 4 mps 750 mmHg 75%
    17:00 +21°C° 0 mm 3 mps 750 mmHg 77%
    18:00 +20°C° 0 mm 3 mps 749 mmHg 80%
    19:00 +19°C° 0 mm 2 mps 749 mmHg 83%
    20:00 +18°C° 0 mm 2 mps 749 mmHg 86%
    21:00 +18°C° 0 mm 1 mps 750 mmHg 89%
    22:00 +16°C° 0 mm 1 mps 750 mmHg 91%
    23:00 +16°C° 0.1 mm 1 mps 750 mmHg 91%

    29 May, Wednesday

    Time Temperature Precipitation Wind Pressure Humidity
    00:00 +16°C° 0.1 mm 1 mps 750 mmHg 92%
    01:00 +15°C° 0.1 mm 1 mps 749 mmHg 92%
    02:00 +15°C° 0 mm 1 mps 749 mmHg 91%
    03:00 +15°C° 0 mm 1 mps 750 mmHg 91%
    04:00 +14°C° 0 mm 1 mps 750 mmHg 90%
    05:00 +15°C° 0.1 mm 2 mps 750 mmHg 87%
    06:00 +16°C° 0.1 mm 3 mps 751 mmHg 84%
    07:00 +16°C° 0.1 mm 3 mps 751 mmHg 81%
    08:00 +17°C° 0.1 mm 4 mps 752 mmHg 75%
    09:00 +18°C° 0.1 mm 4 mps 752 mmHg 68%
    10:00 +19°C° 0.1 mm 5 mps 753 mmHg 61%
    11:00 +20°C° 0 mm 5 mps 753 mmHg 60%
    12:00 +20°C° 0 mm 5 mps 754 mmHg 59%
    13:00 +20°C° 0 mm 5 mps 754 mmHg 57%
    14:00 +20°C° 0 mm 4 mps 754 mmHg 59%
    15:00 +19°C° 0 mm 4 mps 755 mmHg 61%
    16:00 +19°C° 0 mm 3 mps 755 mmHg 62%
    17:00 +18°C° 0.1 mm 3 mps 756 mmHg 66%
    18:00 +17°C° 0.1 mm 3 mps 756 mmHg 71%
    19:00 +16°C° 0.1 mm 3 mps 757 mmHg 75%
    20:00 +16°C° 0.1 mm 3 mps 757 mmHg 78%
    21:00 +14°C° 0.1 mm 3 mps 758 mmHg 80%
    22:00 +15°C° 0.1 mm 2 mps 759 mmHg 83%
    23:00 +15°C° 0 mm 2 mps 759 mmHg 83%

    30 May, Thursday

    Time Temperature Precipitation Wind Pressure Humidity
    00:00 +13°C° 0 mm 3 mps 759 mmHg 84%
    01:00 +13°C° 0 mm 3 mps 760 mmHg 84%
    02:00 +14°C° 0 mm 2 mps 760 mmHg 84%
    03:00 +14°C° 0 mm 2 mps 760 mmHg 83%
    04:00 +13°C° 0 mm 2 mps 760 mmHg 83%
    05:00 +15°C° 0 mm 2 mps 761 mmHg 79%
    06:00 +16°C° 0 mm 1 mps 761 mmHg 74%
    07:00 +18°C° 0 mm 1 mps 762 mmHg 70%
    08:00 +20°C° 0 mm 1 mps 762 mmHg 63%
    09:00 +22°C° 0 mm 1 mps 762 mmHg 55%
    10:00 +24°C° 0 mm 1 mps 763 mmHg 48%
    11:00 +25°C° 0.3 mm 1 mps 762 mmHg 49%
    12:00 +25°C° 0.3 mm 1 mps 762 mmHg 51%
    13:00 +25°C° 0.3 mm 1 mps 762 mmHg 52%
    14:00 +25°C° 0.4 mm 2 mps 762 mmHg 53%
    15:00 +25°C° 0.4 mm 2 mps 762 mmHg 55%
    16:00 +25°C° 0.4 mm 2 mps 762 mmHg 57%
    17:00 +23°C° 0.1 mm 2 mps 762 mmHg 62%
    18:00 +21°C° 0.1 mm 2 mps 762 mmHg 67%
    19:00 +20°C° 0.1 mm 2 mps 762 mmHg 72%
    20:00 +19°C° 0 mm 1 mps 763 mmHg 76%
    21:00 +18°C° 0 mm 1 mps 763 mmHg 80%
    22:00 +15°C° 0 mm 1 mps 763 mmHg 84%
    23:00 +14°C° 0 mm 0 mps 763 mmHg 85%

    31 May, Friday

    Time Temperature Precipitation Wind Pressure Humidity
    00:00 +14°C° 0 mm 0 mps 763 mmHg 85%
    01:00 +13°C° 0 mm 0 mps 763 mmHg 86%
    02:00 +13°C° 0 mm 0 mps 763 mmHg 85%
    03:00 +13°C° 0 mm 0 mps 763 mmHg 85%
    04:00 +14°C° 0 mm 1 mps 763 mmHg 84%
    05:00 +14°C° 0 mm 0 mps 763 mmHg 80%
    06:00 +16°C° 0 mm 0 mps 763 mmHg 75%
    07:00 +17°C° 0 mm 0 mps 763 mmHg 71%
    08:00 +21°C° 0 mm 1 mps 763 mmHg 65%
    09:00 +23°C° 0 mm 1 mps 763 mmHg 59%
    10:00 +25°C° 0 mm 2 mps 763 mmHg 53%
    11:00 +25°C° 0 mm 2 mps 763 mmHg 52%
    12:00 +26°C° 0 mm 3 mps 762 mmHg 50%
    13:00 +26°C° 0 mm 3 mps 762 mmHg 49%
    14:00 +26°C° 0 mm 3 mps 762 mmHg 50%
    15:00 +26°C° 0 mm 3 mps 762 mmHg 52%
    16:00 +25°C° 0 mm 3 mps 761 mmHg 53%
    17:00 +24°C° 0 mm 3 mps 761 mmHg 59%
    18:00 +23°C° 0 mm 2 mps 761 mmHg 65%
    19:00 +21°C° 0 mm 2 mps 761 mmHg 72%
    20:00 +20°C° 0 mm 1 mps 761 mmHg 75%
    21:00 +19°C° 0 mm 1 mps 762 mmHg 79%
    22:00 +18°C° 0 mm 1 mps 762 mmHg 82%
    23:00 +18°C° 0 mm 1 mps 762 mmHg 83%
    Show more